Chongqing, China

7:28 AM CST on November 20, 2019 (GMT +0800)
Jiangbei

Weather History for ZUCK - September, 2019

Change the Weather History Date:

Tuesday, September 10, 2019

  Actual Average (WUND) Record (WUND)
Temperature  
Mean Temperature 85 °F -  
Max Temperature 93 °F - - (-1)
Min Temperature 77 °F - - (-1)
Cooling Degree Days 20    
Growing Degree Days 35 (Base 50)    
Moisture  
Dew Point 75 °F    
Average Humidity 79    
Maximum Humidity 100    
Minimum Humidity 45    
Precipitation  
Precipitation 0.00 in - - ()
Sea Level Pressure  
Sea Level Pressure 29.70 in    
Wind  
Wind Speed 4 mph ()    
Max Wind Speed 9 mph    
Max Gust Speed -    
Visibility 7.6 miles    
Events Rain    
Averages and records for this station are not official NWS values.
T = Trace of Precipitation, MM = Missing Value Source: Averaged Metar Reports

Daily Weather History Graph

Daily Weather History Graph

Search for Another Location

Airport or City:

Astronomy

Sep. 10, 2019 Rise Set
Actual Time 6:35 AM CST 7:05 PM CST
Civil Twilight 6:11 AM CST 7:29 PM CST
Nautical Twilight 5:42 AM CST 7:57 PM CST
Astronomical Twilight 5:14 AM CST 8:26 PM CST
Moon 5:01 PM CST (9/10) 2:51 AM CST (9/10)
Length of Visible Light 13h 18m
Length of Day
12h 30m
Waxing Gibbous, 86% of the Moon is Illuminated
Sep 10
Waxing Gibbous
Sep 14
Full
Sep 22
Last Quarter
Sep 29
New
Oct 6
First Quarter

Hourly Weather History & Observations

Time (CST) Temp. Heat Index Dew Point Humidity Pressure Visibility Wind Dir Wind Speed Gust Speed Precip Events Conditions
12:00 AM 77.0 °F - 77.0 °F 100% 29.68 in 5.6 mi Calm Calm - N/A   Unknown
1:00 AM 77.0 °F - 77.0 °F 100% 29.68 in - Calm Calm - N/A   Clear
2:00 AM 78 °F - 75 °F 89% 29.59 in 6 mi NNW 2.2 mph - -  
2:00 AM 77.0 °F - 77.0 °F 100% 29.65 in - NNE 4.5 mph - N/A   Clear
3:00 AM 77.0 °F - 77.0 °F 100% 29.65 in - North 4.5 mph - N/A   Clear
4:00 AM 77.0 °F - 75.2 °F 94% 29.68 in - North 4.5 mph - N/A   Clear
5:00 AM 77 °F - 76 °F 94% 29.61 in 2 mi WNW 2.2 mph - -   Mist
5:00 AM 77.0 °F - 75.2 °F 94% 29.68 in - NNE 6.7 mph - N/A   Clear
6:00 AM 77.0 °F - 75.2 °F 94% 29.68 in - North 4.5 mph - N/A   Clear
7:00 AM 77.0 °F - 77.0 °F 100% 29.71 in 4.3 mi East 4.5 mph - N/A   Unknown
8:00 AM 78.8 °F - 75.2 °F 89% 29.71 in - NE 8.9 mph - N/A   Clear
9:00 AM 80.6 °F 86.2 °F 75.2 °F 84% 29.74 in - NE 6.7 mph - N/A   Clear
10:00 AM 82.4 °F 89.5 °F 75.2 °F 79% 29.77 in - NE 8.9 mph - N/A   Clear
11:00 AM 87 °F - 75 °F 60% 29.68 in 10 mi NE 4.5 mph - -   Mostly Cloudy
11:00 AM 84.2 °F 94.1 °F 77.0 °F 79% 29.77 in - North 6.7 mph - N/A   Clear
12:00 PM 87.8 °F 97.6 °F 75.2 °F 66% 29.74 in - Variable 4.5 mph - N/A   Clear
1:00 PM 91.4 °F 102.5 °F 75.2 °F 59% 29.71 in 6.2 mi SE 4.5 mph - N/A   Scattered Clouds
2:00 PM 93 °F - 74 °F 45% 29.61 in 15 mi ESE 4.5 mph - -   Mostly Cloudy
2:00 PM 89.6 °F 99.8 °F 75.2 °F 62% 29.71 in 6.2 mi East 8.9 mph - N/A Rain Light Rain Showers
3:00 PM 86.0 °F 96.9 °F 77.0 °F 74% 29.68 in 6.2 mi NNE 8.9 mph - N/A Rain Light Rain Showers
4:00 PM 86.0 °F 96.9 °F 77.0 °F 74% 29.68 in 6.2 mi NE 8.9 mph - N/A   Partly Cloudy
5:00 PM 84 °F - 75 °F 68% 29.60 in 15 mi NNW 2.2 mph - -   Mostly Cloudy
5:00 PM 86.0 °F 95.1 °F 75.2 °F 70% 29.68 in 6.2 mi East 4.5 mph - N/A   Partly Cloudy
6:00 PM 86.0 °F 93.4 °F 73.4 °F 66% 29.68 in - East 6.7 mph - N/A   Clear
7:00 PM 86.0 °F 93.4 °F 73.4 °F 66% 29.71 in - East 6.7 mph - N/A   Clear
8:00 PM 83 °F - 76 °F 75% 29.67 in 8 mi WSW 4.5 mph - -   Mostly Cloudy
8:00 PM 86.0 °F 91.8 °F 71.6 °F 62% 29.74 in - East 4.5 mph - N/A   Clear
9:00 PM 84.2 °F 89.6 °F 71.6 °F 66% 29.77 in - East 4.5 mph - N/A   Clear
10:00 PM 82.4 °F 88.2 °F 73.4 °F 74% 29.80 in - South 2.2 mph - N/A   Clear
11:00 PM 83 °F - 76 °F 74% 29.75 in 9 mi SW 2.2 mph - -  
11:00 PM 82.4 °F 89.5 °F 75.2 °F 79% 29.83 in - South 4.5 mph - N/A   Clear